Simultaneous Nadir Overpasses (SNOs) Predictions

Prediction of SNOs between GOES-17 and TERRA Satellite Orbit:

Table of predicted SNOs for the next 14.0 days since TLE Epoch: 11/16/2024
Index Date Time (GOES-17) GOES-17 Lat,Lon TERRA Lat,Lon Distance(km) Time Diff (sec)
1 11/17/2024 04:21:17 -0.01,-104.65 0.66,-101.41 368.15 80
2 11/17/2024 16:41:00 0.00,-104.71 0.33,-106.21 170.59 80
3 11/19/2024 16:25:26 -0.00,-104.70 -0.61,-101.82 328.12 80
4 11/20/2024 04:45:16 0.01,-104.65 -0.40,-106.64 226.36 80
5 11/22/2024 04:24:21 0.01,-104.64 0.52,-102.24 273.04 80
6 11/22/2024 16:44:03 -0.01,-104.70 0.50,-107.03 265.84 80
7 11/24/2024 16:28:28 -0.01,-104.70 -0.47,-102.64 234.83 80
8 11/25/2024 04:48:17 0.01,-104.65 -0.58,-107.45 318.62 80
9 11/27/2024 04:27:20 0.01,-104.65 0.32,-103.04 182.22 80
10 11/27/2024 16:47:02 -0.01,-104.70 0.62,-107.85 357.06 80
11 11/29/2024 16:31:24 -0.01,-104.70 -0.27,-103.43 144.27 80
